Location: Cabeza de los Veneras
(40.2000°N, 5.2000°W)
Time: 03:45:27
(UTC+00:00)

BlueWalker 3 - Pass Details

Date: 28 June 2024
Orbit: 480 x 491 km, 53.2° (Epoch: 21 July)

Event Time Altitude Azimuth Distance (km) Brightness Sun altitude
Rises 20:45:01 0° 300° (WNW) 2,543 7.6 -8.6°
Reaches altitude 10° 20:48:37 10° 336° (NNW) 1,661 5.8 -9.1°
Maximum altitude 20:49:52 11° 356° (N) 1,579 5.2 -9.3°
Drops below altitude 10° 20:51:06 10° 15° (NNE) 1,660 4.9 -9.5°
Sets 20:54:42 0° 51° (NE) 2,539 5.4 -10.0°
